Location: Casteau
(50.5142°N, 4.0161°E)
Time: 08:07:29
(UTC+00:00)

Cosmos 1428 Rocket - Pass Details

Date: 18 September 2020
Orbit: 947 x 989 km, 82.9° (Epoch: 24 October)

Event Time Altitude Azimuth Distance (km) Brightness Sun altitude
Rises 20:07:37 0° 350° (N) 3,707 8.1 -21.5°
Reaches altitude 10° 20:10:10 10° 352° (N) 2,750 7.4 -21.9°
Maximum altitude 20:16:29 79° 79° (E) 1,000 4.4 -22.7°
Enters shadow 20:18:53 40° 160° (SSE) 1,392 4.9 -23.0°
